When you browse on this site, cookies collect data to enhance your experience and personalize the content and advertising you see.
Visit our Privacy Policy to learn more. By continuing to use the site, you agree to this use of cookies and data.
  • Em Portugal
  • Lista de países
  • Para 7 dias
  • Temperatura da água
  • Mapa do tempo
  • Widgets de tempo
  • user-avatar
    Iniciar Sessão

    Previsão horária em Tappita

    Hoje, 28 Março, Sábado

    Tempo Temperatura Precipitação Vento Pressão Humidade
    00:00 +23°C° 0 mm 0 m/s 737 mmHg 93%
    01:00 +23°C° 0 mm 0 m/s 736 mmHg 94%
    02:00 +23°C° 0 mm 0 m/s 736 mmHg 94%
    03:00 +23°C° 0 mm 0 m/s 736 mmHg 94%
    04:00 +23°C° 0 mm 0 m/s 736 mmHg 95%
    05:00 +22°C° 0 mm 0 m/s 736 mmHg 96%
    06:00 +26°C° 0 mm 1 m/s 737 mmHg 89%
    07:00 +27°C° 0 mm 1 m/s 737 mmHg 82%
    08:00 +29°C° 0 mm 1 m/s 738 mmHg 75%
    09:00 +31°C° 0 mm 1 m/s 737 mmHg 67%
    10:00 +33°C° 0 mm 1 m/s 737 mmHg 59%
    11:00 +34°C° 0 mm 1 m/s 737 mmHg 53%
    12:00 +35°C° 0.4 mm 1 m/s 736 mmHg 54%
    13:00 +33°C° 0.4 mm 0 m/s 736 mmHg 56%
    14:00 +33°C° 0.4 mm 0 m/s 735 mmHg 57%
    15:00 +33°C° 0.9 mm 1 m/s 735 mmHg 63%
    16:00 +32°C° 0.9 mm 1 m/s 735 mmHg 70%
    17:00 +30°C° 0.9 mm 1 m/s 735 mmHg 77%
    18:00 +29°C° 0.4 mm 1 m/s 736 mmHg 82%
    19:00 +28°C° 0.4 mm 1 m/s 736 mmHg 87%
    20:00 +27°C° 0.4 mm 2 m/s 737 mmHg 91%
    21:00 +26°C° 0 mm 1 m/s 737 mmHg 93%
    22:00 +26°C° 0 mm 1 m/s 737 mmHg 94%
    23:00 +24°C° 0 mm 0 m/s 737 mmHg 96%

    Amanhã, 29 Março, Domingo

    Tempo Temperatura Precipitação Vento Pressão Humidade
    00:00 +24°C° 0.1 mm 0 m/s 737 mmHg 97%
    01:00 +23°C° 0.1 mm 0 m/s 736 mmHg 97%
    02:00 +25°C° 0.1 mm 1 m/s 736 mmHg 97%
    03:00 +23°C° 0 mm 0 m/s 736 mmHg 98%
    04:00 +23°C° 0 mm 0 m/s 736 mmHg 98%
    05:00 +23°C° 0 mm 0 m/s 736 mmHg 98%
    06:00 +26°C° 0 mm 1 m/s 737 mmHg 92%
    07:00 +28°C° 0 mm 1 m/s 737 mmHg 85%
    08:00 +29°C° 0 mm 1 m/s 738 mmHg 79%
    09:00 +31°C° 0 mm 1 m/s 738 mmHg 69%
    10:00 +33°C° 0 mm 1 m/s 737 mmHg 60%
    11:00 +36°C° 0 mm 1 m/s 737 mmHg 50%
    12:00 +35°C° 2 mm 1 m/s 736 mmHg 57%
    13:00 +34°C° 2 mm 1 m/s 736 mmHg 63%
    14:00 +31°C° 2 mm 0 m/s 735 mmHg 70%
    15:00 +31°C° 1.3 mm 1 m/s 735 mmHg 76%
    16:00 +30°C° 1.3 mm 1 m/s 735 mmHg 82%
    17:00 +28°C° 1.3 mm 1 m/s 735 mmHg 88%
    18:00 +27°C° 0.3 mm 1 m/s 735 mmHg 91%
    19:00 +27°C° 0.3 mm 1 m/s 736 mmHg 93%
    20:00 +26°C° 0.3 mm 1 m/s 736 mmHg 95%
    21:00 +26°C° 0.1 mm 1 m/s 736 mmHg 96%
    22:00 +26°C° 0.1 mm 1 m/s 736 mmHg 96%
    23:00 +26°C° 0.1 mm 1 m/s 736 mmHg 97%

    Depois de amanhã, 30 Março, Segunda-feira

    Tempo Temperatura Precipitação Vento Pressão Humidade
    00:00 +25°C° 0.2 mm 1 m/s 736 mmHg 97%
    01:00 +25°C° 0.2 mm 1 m/s 735 mmHg 97%
    02:00 +25°C° 0.2 mm 1 m/s 735 mmHg 97%
    03:00 +23°C° 0 mm 0 m/s 735 mmHg 96%
    04:00 +23°C° 0 mm 0 m/s 735 mmHg 96%
    05:00 +23°C° 0 mm 0 m/s 735 mmHg 96%
    06:00 +23°C° 0 mm 0 m/s 736 mmHg 95%
    07:00 +24°C° 0 mm 0 m/s 736 mmHg 93%
    08:00 +24°C° 0 mm 0 m/s 737 mmHg 92%
    09:00 +25°C° 0 mm 0 m/s 736 mmHg 86%
    10:00 +28°C° 0 mm 1 m/s 736 mmHg 81%
    11:00 +30°C° 0 mm 1 m/s 735 mmHg 75%
    12:00 +32°C° 0 mm 1 m/s 735 mmHg 65%
    13:00 +34°C° 0 mm 1 m/s 734 mmHg 56%
    14:00 +36°C° 0 mm 1 m/s 734 mmHg 47%
    15:00 +35°C° 0.1 mm 1 m/s 734 mmHg 53%
    16:00 +33°C° 0.1 mm 1 m/s 734 mmHg 58%
    17:00 +32°C° 0.1 mm 2 m/s 734 mmHg 64%
    18:00 +30°C° 3.4 mm 1 m/s 734 mmHg 74%
    19:00 +28°C° 3.4 mm 1 m/s 735 mmHg 84%
    20:00 +26°C° 3.4 mm 1 m/s 735 mmHg 94%
    21:00 +26°C° 0.1 mm 1 m/s 735 mmHg 95%
    22:00 +26°C° 0.1 mm 1 m/s 735 mmHg 96%
    23:00 +26°C° 0.1 mm 1 m/s 736 mmHg 97%

    31 Março, Terça-feira

    Tempo Temperatura Precipitação Vento Pressão Humidade
    00:00 +25°C° 0 mm 1 m/s 735 mmHg 98%
    01:00 +25°C° 0 mm 1 m/s 735 mmHg 98%
    02:00 +23°C° 0 mm 0 m/s 734 mmHg 99%
    03:00 +23°C° 0 mm 0 m/s 734 mmHg 99%
    04:00 +23°C° 0 mm 0 m/s 735 mmHg 99%
    05:00 +23°C° 0 mm 0 m/s 735 mmHg 99%
    06:00 +24°C° 0 mm 0 m/s 736 mmHg 94%
    07:00 +27°C° 0 mm 1 m/s 736 mmHg 89%
    08:00 +28°C° 0 mm 1 m/s 737 mmHg 85%
    09:00 +30°C° 0 mm 1 m/s 737 mmHg 77%
    10:00 +31°C° 0 mm 1 m/s 736 mmHg 70%
    11:00 +33°C° 0 mm 1 m/s 736 mmHg 62%
    12:00 +33°C° 0 mm 1 m/s 735 mmHg 60%
    13:00 +34°C° 0 mm 1 m/s 735 mmHg 59%
    14:00 +34°C° 0 mm 1 m/s 734 mmHg 57%
    15:00 +33°C° 0.3 mm 1 m/s 734 mmHg 62%
    16:00 +32°C° 0.3 mm 1 m/s 734 mmHg 66%
    17:00 +32°C° 0.3 mm 1 m/s 734 mmHg 71%
    18:00 +30°C° 1.2 mm 1 m/s 734 mmHg 79%
    19:00 +28°C° 1.2 mm 2 m/s 735 mmHg 87%
    20:00 +26°C° 1.2 mm 2 m/s 735 mmHg 94%
    21:00 +26°C° 0 mm 2 m/s 735 mmHg 96%
    22:00 +26°C° 0 mm 1 m/s 736 mmHg 97%
    23:00 +26°C° 0 mm 1 m/s 736 mmHg 98%

    1 Abril, Quarta-feira

    Tempo Temperatura Precipitação Vento Pressão Humidade
    00:00 +26°C° 0 mm 1 m/s 736 mmHg 99%
    01:00 +23°C° 0 mm 0 m/s 735 mmHg 99%
    02:00 +23°C° 0 mm 0 m/s 735 mmHg 99%
    03:00 +23°C° 0 mm 0 m/s 735 mmHg 99%
    04:00 +23°C° 0 mm 0 m/s 735 mmHg 99%
    05:00 +23°C° 0 mm 0 m/s 736 mmHg 99%
    06:00 +24°C° 0 mm 0 m/s 736 mmHg 96%
    07:00 +25°C° 0 mm 0 m/s 737 mmHg 93%
    08:00 +26°C° 0 mm 0 m/s 737 mmHg 91%
    09:00 +27°C° 0.1 mm 0 m/s 737 mmHg 83%
    10:00 +31°C° 0.1 mm 1 m/s 737 mmHg 75%
    11:00 +32°C° 0.1 mm 1 m/s 737 mmHg 68%
    12:00 +33°C° 0 mm 1 m/s 736 mmHg 65%
    13:00 +33°C° 0 mm 1 m/s 735 mmHg 62%
    14:00 +34°C° 0 mm 1 m/s 734 mmHg 59%
    15:00 +33°C° 0.3 mm 1 m/s 734 mmHg 67%
    16:00 +32°C° 0.3 mm 1 m/s 734 mmHg 74%
    17:00 +30°C° 0.3 mm 1 m/s 734 mmHg 82%
    18:00 +29°C° 1.6 mm 1 m/s 735 mmHg 86%
    19:00 +28°C° 1.6 mm 1 m/s 736 mmHg 90%
    20:00 +26°C° 1.6 mm 1 m/s 736 mmHg 95%
    21:00 +26°C° 0 mm 1 m/s 736 mmHg 96%
    22:00 +26°C° 0 mm 1 m/s 737 mmHg 97%
    23:00 +26°C° 0 mm 1 m/s 737 mmHg 98%

    2 Abril, Quinta-feira

    Tempo Temperatura Precipitação Vento Pressão Humidade
    00:00 +26°C° 0 mm 1 m/s 736 mmHg 98%
    01:00 +26°C° 0 mm 1 m/s 736 mmHg 98%
    02:00 +25°C° 0 mm 1 m/s 735 mmHg 99%
    03:00 +23°C° 0 mm 0 m/s 735 mmHg 99%
    04:00 +23°C° 0 mm 0 m/s 735 mmHg 99%
    05:00 +23°C° 0 mm 0 m/s 735 mmHg 99%
    06:00 +24°C° 0 mm 0 m/s 736 mmHg 94%
    07:00 +27°C° 0 mm 1 m/s 737 mmHg 89%
    08:00 +29°C° 0 mm 1 m/s 737 mmHg 84%
    09:00 +30°C° 0.1 mm 1 m/s 737 mmHg 76%
    10:00 +32°C° 0.1 mm 1 m/s 737 mmHg 68%
    11:00 +34°C° 0.1 mm 1 m/s 737 mmHg 59%
    12:00 +34°C° 0.1 mm 1 m/s 736 mmHg 58%
    13:00 +34°C° 0.1 mm 1 m/s 735 mmHg 57%
    14:00 +34°C° 0.1 mm 1 m/s 735 mmHg 56%
    15:00 +32°C° 2.3 mm 1 m/s 735 mmHg 67%
    16:00 +30°C° 2.3 mm 1 m/s 735 mmHg 78%
    17:00 +28°C° 2.3 mm 1 m/s 735 mmHg 89%
    18:00 +28°C° 0.6 mm 1 m/s 735 mmHg 91%
    19:00 +27°C° 0.6 mm 1 m/s 736 mmHg 93%
    20:00 +26°C° 0.6 mm 1 m/s 736 mmHg 94%
    21:00 +26°C° 0 mm 1 m/s 736 mmHg 95%
    22:00 +26°C° 0 mm 1 m/s 736 mmHg 96%
    23:00 +26°C° 0 mm 1 m/s 737 mmHg 97%
    Mostrar mais